Location: Aztalan State Park
(43.0642°N, 88.8607°W)
Time: 07:23:38
(UTC-06:00)

Amateur Radio Satellites - All Passes

Search period start: 18 January 2018 06:53
Search period end: 19 January 2018 06:53
Location: Aztalan State Park, 43.0642°N, 88.8607°W

Satellite Date Start Highest point End Downlink Frequencies (MHz)
Time Altitude Azimuth
ZACube-1 18 Jan 06:58:10 07:01:09 17° 91° (E) 07:04:06 437.345
CUTE-I 18 Jan 06:58:10 07:03:18 51° 290° (WNW) 07:08:26 437.470
AO-73 18 Jan 07:06:48 07:09:58 18° 91° (E) 07:13:05 145.935
FALCONSAT 3 18 Jan 07:06:59 07:10:01 24° 178° (S) 07:13:03 435.103
LilacSat-2 18 Jan 07:07:44 07:10:15 17° 294° (WNW) 07:12:43 437.200
XW-2C 18 Jan 07:14:15 07:16:32 16° 295° (WNW) 07:18:48 145.795 - 145.815
STRAND 1 18 Jan 07:16:50 07:21:30 36° 263° (W) 07:26:12 437.568
SO-50 18 Jan 07:28:58 07:32:35 23° 318° (NW) 07:36:15 436.795
FO-29 18 Jan 07:41:06 07:48:04 61° 258° (WSW) 07:54:15 435.910
Oscar 11 18 Jan 07:43:10 07:46:49 26° 95° (E) 07:50:26 .
TIGRISAT 18 Jan 07:45:41 07:48:40 18° 63° (ENE) 07:51:44 435.000
XW-2A 18 Jan 07:48:57 07:52:20 73° 101° (E) 07:55:40 145.665 - 145.685
CUBEBUG 2 18 Jan 07:50:30 07:55:00 43° 289° (WNW) 07:59:29 437.445
AAUSAT CUBESAT 2 18 Jan 07:55:52 07:59:59 83° 284° (WNW) 08:04:05 437.432
UNISAT 6 18 Jan 07:59:17 08:02:57 26° 67° (ENE) 08:06:43 437.425
UWE-3 18 Jan 08:02:23 08:06:59 56° 287° (WNW) 08:11:31 435.000/436.395/437.385
SEEDS 18 Jan 08:05:04 08:08:39 28° 291° (WNW) 08:12:13 437.485
CUTE 1.7 + AOD 2 18 Jan 08:12:14 08:14:50 16° 296° (WNW) 08:17:25 437.475
YUBILEINY 18 Jan 08:30:30 08:36:26 19° 60° (ENE) 08:42:19 435.215
ZACube-1 18 Jan 08:33:15 08:37:41 49° 288° (WNW) 08:42:03 437.345
RS-15 18 Jan 08:33:18 08:45:34 75° 118° (ESE) 08:57:40 29.354- 29.394
HO-68 18 Jan 08:38:25 08:44:15 28° 301° (WNW) 08:50:05 435.675
AO-73 18 Jan 08:42:02 08:46:25 45° 288° (WNW) 08:50:42 145.935
FALCONSAT 3 18 Jan 08:45:54 08:48:31 18° 194° (SSW) 08:51:07 435.103
Max Valier Satellite 18 Jan 08:46:36 08:48:39 14° 92° (E) 08:50:41 145.860
DELFI C3 18 Jan 09:01:56 09:05:32 34° 97° (E) 09:09:07 145.870
PRISM 18 Jan 09:08:08 09:11:43 31° 69° (ENE) 09:15:19 437.425
EO-88 18 Jan 09:12:17 09:14:53 18° 94° (E) 09:17:28 145.990 - 145.960
Oscar 11 18 Jan 09:19:10 09:22:55 29° 291° (WNW) 09:26:38 .
TIGRISAT 18 Jan 09:20:44 09:24:58 47° 261° (W) 09:29:20 435.000
UNISAT 6 18 Jan 09:35:40 09:39:33 30° 265° (W) 09:43:32 437.425
AIST 2D 18 Jan 09:37:30 09:40:25 25° 70° (ENE) 09:43:21 435.315
EO-79 18 Jan 10:01:01 10:03:52 18° 64° (ENE) 10:06:45 145.935-145.965
O/OREOS (USA 219) 18 Jan 10:01:28 10:05:39 37° 61° (ENE) 10:09:49 437.305
PCSat 18 Jan 10:03:06 10:08:21 54° 115° (ESE) 10:13:38 145.827
DUCHIFAT 1 18 Jan 10:04:15 10:06:36 15° 63° (ENE) 10:08:59 145.980
Max Valier Satellite 18 Jan 10:19:10 10:22:38 38° 288° (WNW) 10:26:04 145.860
YUBILEINY 18 Jan 10:25:49 10:34:37 87° 82° (E) 10:43:19 435.215
BEESAT 3 18 Jan 10:26:47 10:30:46 85° 302° (WNW) 10:34:47 437.485
POLYITAN 1 18 Jan 10:33:53 10:37:49 38° 70° (ENE) 10:41:47 437.675
DELFI C3 18 Jan 10:37:15 10:40:02 19° 293° (WNW) 10:42:48 145.870
LO-87 18 Jan 10:40:45 10:43:54 27° 96° (E) 10:47:01 145.935 - 145.965
PRISM 18 Jan 10:43:51 10:47:01 22° 265° (W) 10:50:11 437.425
EO-88 18 Jan 10:45:22 10:48:32 28° 290° (WNW) 10:51:40 145.990 - 145.960
RS-15 18 Jan 10:47:39 10:59:08 43° 324° (NW) 11:10:25 29.354- 29.394
NANOSAT C BR1 18 Jan 10:52:12 10:56:18 54° 73° (ENE) 11:00:26 145.865
QB50P2 18 Jan 11:02:58 11:07:12 89° 267° (W) 11:11:28 145.880/145.840
ESTCUBE 1 18 Jan 11:05:11 11:09:28 42° 98° (E) 11:13:42 437.505/2401.250
BEESAT 2 18 Jan 11:07:22 11:11:21 69° 120° (ESE) 11:15:23 435.950
AIST 2D 18 Jan 11:10:53 11:13:32 20° 266° (W) 11:16:12 435.315
Oscar 19 18 Jan 11:11:32 11:14:36 16° 59° (ENE) 11:17:40 437.125/150
BUGSAT 1 18 Jan 11:16:37 11:19:35 20° 65° (ENE) 11:22:36 437.445
EO-79 18 Jan 11:35:16 11:39:17 43° 261° (W) 11:43:21 145.935-145.965
DUCHIFAT 1 18 Jan 11:37:42 11:41:48 54° 260° (W) 11:45:57 145.980
AO-91 18 Jan 11:38:00 11:40:07 16° 66° (ENE) 11:42:16 145.960
SPROUT 18 Jan 11:38:15 11:41:40 23° 94° (E) 11:45:05 437.525
O/OREOS (USA 219) 18 Jan 11:41:23 11:44:49 22° 258° (WSW) 11:48:14 437.305
PCSat 18 Jan 11:47:30 11:52:03 27° 314° (NW) 11:56:37 145.827
BEESAT 3 18 Jan 12:07:06 12:08:55 13° 323° (NW) 12:10:43 437.485
POLYITAN 1 18 Jan 12:10:42 12:13:43 19° 267° (W) 12:16:47 437.675
Gurwin Techsat 1B 18 Jan 12:11:11 12:16:05 40° 68° (ENE) 12:21:01 435.225
LO-87 18 Jan 12:14:25 12:17:07 20° 292° (WNW) 12:19:48 145.935 - 145.965
YUBILEINY 18 Jan 12:24:31 12:30:11 20° 283° (WNW) 12:35:52 435.215
NANOSAT C BR1 18 Jan 12:30:13 12:32:19 14° 269° (W) 12:34:27 145.865
AO-85 18 Jan 12:33:56 12:37:51 75° 122° (ESE) 12:42:06 145.980
SO-50 18 Jan 12:38:44 12:40:46 13° 32° (NNE) 12:42:50 436.795
AO-7 18 Jan 12:40:10 12:46:32 25° 52° (NE) 12:52:54 .
ESTCUBE 1 18 Jan 12:42:41 12:45:58 20° 295° (WNW) 12:49:14 437.505/2401.250
BEESAT 2 18 Jan 12:46:55 12:49:30 16° 320° (NW) 12:52:05 435.950
Oscar 19 18 Jan 12:48:05 12:53:17 75° 258° (WSW) 12:58:30 437.125/150
BUGSAT 1 18 Jan 12:50:57 12:54:41 35° 262° (W) 12:58:29 437.445
VELOX 1 18 Jan 12:53:57 12:58:22 81° 105° (ESE) 13:02:45 145.980
RS-15 18 Jan 13:06:28 13:16:01 25° 357° (N) 13:25:17 29.354- 29.394
AO-91 18 Jan 13:13:30 13:16:25 27° 264° (W) 13:19:23 145.960
SPROUT 18 Jan 13:13:44 13:17:36 33° 290° (WNW) 13:21:26 437.525
UKube-1 18 Jan 13:14:48 13:17:23 16° 92° (E) 13:19:59 .
50 SAT 18 Jan 13:18:44 13:21:12 21° 96° (E) 13:23:39 437.505
DX 1 18 Jan 13:19:32 13:23:20 29° 96° (E) 13:27:06 434.975-435.025
ITAMSAT 1 18 Jan 13:49:20 13:53:26 24° 63° (ENE) 13:57:33 435.822/435.867
Gurwin Techsat 1B 18 Jan 13:51:37 13:56:07 28° 265° (W) 14:00:39 435.225
AO-85 18 Jan 14:16:16 14:18:51 16° 323° (NW) 14:21:33 145.980
SO-50 18 Jan 14:17:32 14:22:11 60° 53° (NE) 14:26:54 436.795
MOZHAYETS 4 18 Jan 14:21:59 14:25:49 25° 94° (E) 14:29:37
AO-7 18 Jan 14:29:59 14:38:21 85° 252° (WSW) 14:46:48 .
VELOX 1 18 Jan 14:32:47 14:34:09 11° 300° (WNW) 14:35:30 145.980
UKube-1 18 Jan 14:49:30 14:53:40 49° 289° (WNW) 14:57:48 .
50 SAT 18 Jan 14:50:35 14:52:47 18° 292° (WNW) 14:54:58 437.505
DX 1 18 Jan 14:55:46 14:59:25 27° 293° (WNW) 15:03:03 434.975-435.025
ITUPSAT 1 18 Jan 15:01:23 15:05:47 35° 97° (E) 15:10:10 437.325
DOVE 4 18 Jan 15:02:06 15:05:32 24° 68° (ENE) 15:08:54 437.250
M-CUBED/EXP-1 PRIME 18 Jan 15:13:12 15:17:30 54° 68° (ENE) 15:21:34 437.505
RS-15 18 Jan 15:22:22 15:33:12 37° 31° (NNE) 15:43:28 29.354- 29.394
ITAMSAT 1 18 Jan 15:27:41 15:32:37 45° 261° (W) 15:37:35 435.822/435.867
HO-68 18 Jan 15:38:33 15:39:59 11° 46° (NE) 15:41:25 435.675
BEESAT 18 Jan 15:42:44 15:47:33 89° 299° (WNW) 15:52:21 436.000
XW-2B 18 Jan 15:53:29 15:54:28 11° 63° (ENE) 15:55:26 145.730 - 145.750
CUBESAT XI-V 18 Jan 15:54:11 15:58:45 57° 100° (E) 16:03:15 437.345
MOZHAYETS 4 18 Jan 15:58:49 16:03:00 34° 291° (WNW) 16:07:09
SO-50 18 Jan 15:59:04 16:02:13 18° 250° (WSW) 16:05:22 436.795
KKS-1 18 Jan 16:12:21 16:14:17 12° 90° (E) 16:16:11 437.445
LilacSat-2 18 Jan 16:15:39 16:18:37 21° 68° (ENE) 16:21:35 437.200
XW-2C 18 Jan 16:21:19 16:24:21 23° 68° (ENE) 16:27:23 145.795 - 145.815
AO-7 18 Jan 16:27:08 16:32:15 17° 271° (W) 16:37:25 .
DOVE 4 18 Jan 16:39:16 16:43:07 30° 263° (W) 16:46:51 437.250
ITUPSAT 1 18 Jan 16:39:25 16:43:28 27° 294° (WNW) 16:47:30 437.325
CUTE-I 18 Jan 16:41:23 16:46:16 39° 68° (ENE) 16:51:11 437.470
M-CUBED/EXP-1 PRIME 18 Jan 16:49:29 16:52:03 15° 262° (W) 16:54:33 437.505
XW-2F 18 Jan 16:59:31 17:03:16 58° 74° (ENE) 17:07:01 145.980 - 146.000
KAITUO 1B 18 Jan 17:02:40 17:06:18 47° 73° (ENE) 17:09:56 145.475/437.950
NO-84 18 Jan 17:04:09 17:06:36 22° 132° (SE) 17:08:58 435.350 FM
XW-2D 18 Jan 17:06:44 17:10:35 82° 75° (ENE) 17:14:25 145.860 - 145.880
BEESAT 3 18 Jan 17:06:56 17:08:06 11° 35° (NE) 17:09:16 437.485
PCSat 18 Jan 17:08:24 17:10:32 12° 33° (NNE) 17:12:40 145.827
CUBEBUG 2 18 Jan 17:14:00 17:17:00 19° 64° (ENE) 17:20:07 437.445
NUDT-PHONESAT 18 Jan 17:18:32 17:22:15 71° 75° (ENE) 17:25:59 437.300
HO-68 18 Jan 17:19:14 17:26:05 51° 66° (ENE) 17:32:56 435.675
SEEDS 18 Jan 17:22:14 17:25:19 20° 66° (ENE) 17:28:25 437.485
BEESAT 18 Jan 17:22:57 17:24:34 12° 302° (WNW) 17:26:11 436.000
XW-2B 18 Jan 17:24:18 17:28:06 63° 259° (W) 17:31:55 145.730 - 145.750
UWE-3 18 Jan 17:25:44 17:28:07 14° 62° (ENE) 17:30:33 435.000/436.395/437.385
CUTE 1.7 + AOD 2 18 Jan 17:28:28 17:32:25 38° 71° (ENE) 17:36:23 437.475
CUBESAT XI-V 18 Jan 17:32:46 17:35:39 17° 297° (WNW) 17:38:30 437.345
RS-15 18 Jan 17:35:20 17:47:07 85° 239° (WSW) 17:58:16 29.354- 29.394
KKS-1 18 Jan 17:46:50 17:51:15 65° 286° (WNW) 17:55:39 437.445
LilacSat-2 18 Jan 17:49:20 17:52:43 29° 264° (W) 17:56:07 437.200
XW-2C 18 Jan 17:55:07 17:58:23 26° 264° (W) 18:01:40 145.795 - 145.815
ZACube-1 18 Jan 17:55:09 17:57:47 16° 62° (ENE) 18:00:27 437.345
AO-73 18 Jan 18:03:23 18:06:11 17° 63° (ENE) 18:09:01 145.935
STARS 18 Jan 18:10:18 18:14:44 89° 116° (ESE) 18:19:09 437.465
XW-2A 18 Jan 18:20:41 18:23:34 26° 70° (ENE) 18:26:29 145.665 - 145.685
CUTE-I 18 Jan 18:21:52 18:26:24 28° 265° (W) 18:30:56 437.470
XW-2F 18 Jan 18:37:12 18:37:43 10° 271° (W) 18:38:13 145.980 - 146.000
Oscar 11 18 Jan 18:38:52 18:42:19 23° 67° (ENE) 18:45:46 .
KAITUO 1B 18 Jan 18:38:57 18:40:30 12° 269° (W) 18:42:05 145.475/437.950
NO-84 18 Jan 18:40:56 18:43:39 32° 327° (NNW) 18:46:16 435.350 FM
BEESAT 3 18 Jan 18:42:25 18:46:20 73° 54° (NE) 18:50:12 437.485
AAUSAT CUBESAT 2 18 Jan 18:46:10 18:50:17 70° 74° (ENE) 18:54:24 437.432
CUBEBUG 2 18 Jan 18:49:06 18:53:15 45° 262° (W) 18:57:35 437.445
PCSat 18 Jan 18:49:54 18:55:13 53° 55° (NE) 19:00:30 145.827
FO-29 18 Jan 18:51:37 18:54:07 13° 89° (E) 18:56:35 435.910
SEEDS 18 Jan 18:56:49 19:00:45 37° 263° (W) 19:04:41 437.485
UWE-3 18 Jan 18:59:40 19:04:00 63° 259° (W) 19:08:30 435.000/436.395/437.385
CUTE 1.7 + AOD 2 18 Jan 19:05:15 19:08:22 19° 267° (W) 19:11:29 437.475
HO-68 18 Jan 19:07:44 19:14:01 33° 265° (W) 19:20:20 435.675
AO-85 18 Jan 19:23:56 19:27:05 17° 38° (NE) 19:30:21 145.980
BEESAT 2 18 Jan 19:23:57 19:27:54 53° 53° (NE) 19:31:46 435.950
STRAND 1 18 Jan 19:25:37 19:30:46 71° 103° (ESE) 19:35:54 437.568
ZACube-1 18 Jan 19:29:12 19:33:32 58° 260° (W) 19:38:01 437.345
AO-73 18 Jan 19:37:38 19:41:57 54° 261° (W) 19:46:23 145.935
DELFI C3 18 Jan 19:48:08 19:51:12 22° 68° (ENE) 19:54:16 145.870
STARS 18 Jan 19:49:40 19:50:21 10° 301° (WNW) 19:51:01 437.465
RS-15 18 Jan 19:49:51 19:57:37 22° 262° (W) 20:05:11 29.354- 29.394
EO-88 18 Jan 19:52:44 19:53:14 10° 63° (ENE) 19:53:45 145.990 - 145.960
XW-2A 18 Jan 19:53:51 19:56:15 18° 266° (W) 19:58:40 145.665 - 145.685
nSIGHT-1 18 Jan 20:10:27 20:12:00 13° 132° (SE) 20:13:34 .
Oscar 11 18 Jan 20:14:19 20:18:16 34° 263° (W) 20:22:14 .
PCSat 18 Jan 20:34:01 20:38:14 23° 253° (WSW) 20:42:25 145.827
FO-29 18 Jan 20:34:39 20:39:53 70° 287° (WNW) 20:45:03 435.910
Max Valier Satellite 18 Jan 20:57:50 21:01:34 83° 257° (WSW) 21:05:20 145.860
BEESAT 2 18 Jan 21:02:55 21:05:10 15° 250° (WSW) 21:07:23 435.950
AO-85 18 Jan 21:03:13 21:08:11 84° 56° (NE) 21:13:27 145.980
STRAND 1 18 Jan 21:06:14 21:09:22 16° 300° (WNW) 21:12:29 437.568
TIGRISAT 18 Jan 21:10:58 21:15:15 34° 96° (E) 21:19:29 435.000
LO-87 18 Jan 21:18:33 21:20:21 14° 65° (ENE) 21:22:11 145.935 - 145.965
DELFI C3 18 Jan 21:22:24 21:25:47 28° 264° (W) 21:29:12 145.870
EO-88 18 Jan 21:22:44 21:26:20 61° 259° (W) 21:29:59 145.990 - 145.960
UNISAT 6 18 Jan 21:25:21 21:29:58 52° 100° (E) 21:34:32 437.425
YUBILEINY 18 Jan 21:34:25 21:40:23 21° 78° (ENE) 21:46:19 435.215
nSIGHT-1 18 Jan 21:44:37 21:47:46 76° 327° (NNW) 21:50:57 .
ISS 18 Jan 21:47:42 21:50:58 79° 144° (SE) 21:54:14 437.550
ESTCUBE 1 18 Jan 22:05:14 22:09:31 43° 71° (ENE) 22:13:49 437.505/2401.250
PRISM 18 Jan 22:22:48 22:26:42 43° 99° (E) 22:30:35 437.425
SPROUT 18 Jan 22:32:34 22:35:40 20° 65° (ENE) 22:38:47 437.525
AIST 2D 18 Jan 22:33:52 22:36:49 25° 96° (E) 22:39:43 435.315
AO-85 18 Jan 22:45:28 22:48:04 14° 252° (WSW) 22:50:44 145.980
TIGRISAT 18 Jan 22:47:50 22:51:46 27° 293° (WNW) 22:55:42 435.000
QB50P2 18 Jan 22:48:10 22:50:28 14° 91° (E) 22:52:45 145.880/145.840
LO-87 18 Jan 22:50:01 22:53:23 40° 262° (W) 22:56:47 145.935 - 145.965
UNISAT 6 18 Jan 23:03:01 23:06:15 19° 296° (WNW) 23:09:29 437.425
EO-79 18 Jan 23:18:53 23:22:32 27° 95° (E) 23:26:11 145.935-145.965
DUCHIFAT 1 18 Jan 23:21:00 23:24:18 21° 94° (E) 23:27:34 145.980
nSIGHT-1 18 Jan 23:21:49 23:24:19 21° 347° (NNW) 23:26:51 .
ISS 18 Jan 23:24:59 23:27:44 24° 344° (NNW) 23:30:29 437.550
YUBILEINY 18 Jan 23:27:09 23:36:00 85° 278° (W) 23:44:53 435.215
NO-84 18 Jan 23:35:18 23:37:49 27° 31° (NNE) 23:40:24 435.350 FM
ESTCUBE 1 18 Jan 23:43:16 23:46:30 19° 267° (W) 23:49:45 437.505/2401.250
VELOX 1 18 Jan 23:51:35 23:55:58 79° 76° (ENE) 00:00:22 145.980
POLYITAN 1 18 Jan 23:52:47 23:57:04 64° 101° (E) 00:01:19 437.675
PRISM 18 Jan 23:59:01 00:01:37 17° 296° (WNW) 00:04:14 437.425
AIST 2D 19 Jan 00:07:17 00:09:48 19° 292° (WNW) 00:12:18 435.315
SPROUT 19 Jan 00:07:20 00:11:17 38° 262° (W) 00:15:17 437.525
UKube-1 19 Jan 00:10:18 00:12:56 16° 63° (ENE) 00:15:34 .
NANOSAT C BR1 19 Jan 00:10:42 00:15:00 89° 104° (ESE) 00:19:15 145.865
O/OREOS (USA 219) 19 Jan 00:14:43 00:18:51 36° 105° (ESE) 00:22:57 437.305
DX 1 19 Jan 00:15:50 00:19:34 29° 68° (ENE) 00:23:18 434.975-435.025
QB50P2 19 Jan 00:22:22 00:26:34 53° 287° (WNW) 00:30:43 145.880/145.840
Gurwin Techsat 1B 19 Jan 00:27:51 00:30:31 14° 89° (E) 00:33:10 435.225
BUGSAT 1 19 Jan 00:31:18 00:35:01 29° 96° (E) 00:38:43 437.445
EO-79 19 Jan 00:54:35 00:58:14 28° 292° (WNW) 01:01:52 145.935-145.965
DUCHIFAT 1 19 Jan 00:56:08 01:00:00 34° 290° (WNW) 01:03:51 145.980
Oscar 19 19 Jan 00:58:55 01:03:40 35° 97° (E) 01:08:21 437.125/150
nSIGHT-1 19 Jan 00:59:00 01:01:18 18° 7° (N) 01:03:36 .
AO-91 19 Jan 00:59:53 01:04:02 41° 99° (E) 01:08:35 145.960
ISS 19 Jan 01:02:38 01:05:00 18° 4° (N) 01:07:23 437.550
NO-84 19 Jan 01:12:25 01:14:55 26° 227° (SW) 01:17:33 435.350 FM
50 SAT 19 Jan 01:14:41 01:17:43 57° 259° (WSW) 01:20:47 437.505
BEESAT 19 Jan 01:14:42 01:17:19 15° 60° (ENE) 01:19:56 436.000
MOZHAYETS 4 19 Jan 01:24:35 01:28:29 28° 67° (ENE) 01:32:25
YUBILEINY 19 Jan 01:28:21 01:34:14 19° 300° (WNW) 01:40:09 435.215
POLYITAN 1 19 Jan 01:30:14 01:32:18 13° 298° (WNW) 01:34:23 437.675
UKube-1 19 Jan 01:44:21 01:48:31 51° 259° (W) 01:52:44 .
DX 1 19 Jan 01:52:02 01:55:42 26° 264° (W) 01:59:22 434.975-435.025
O/OREOS (USA 219) 19 Jan 01:54:37 01:58:19 24° 304° (WNW) 02:02:01 437.305
Gurwin Techsat 1B 19 Jan 02:05:43 02:11:03 77° 286° (WNW) 02:16:20 435.225
BUGSAT 1 19 Jan 02:06:43 02:10:15 26° 292° (WNW) 02:13:46 437.445
ITUPSAT 1 19 Jan 02:08:45 02:13:17 45° 70° (ENE) 02:17:52 437.325
AO-7 19 Jan 02:31:10 02:38:21 31° 95° (E) 02:45:27 .
nSIGHT-1 19 Jan 02:34:58 02:38:03 44° 27° (NNE) 02:41:07 .
AO-91 19 Jan 02:37:01 02:40:17 21° 292° (WNW) 02:43:47 145.960
Oscar 19 19 Jan 02:38:23 02:42:52 30° 294° (WNW) 02:47:18 437.125/150
ISS 19 Jan 02:39:03 02:42:08 37° 24° (NNE) 02:45:13 437.550
BEESAT 19 Jan 02:49:46 02:54:30 70° 257° (WSW) 02:59:17 436.000
CUBESAT XI-V 19 Jan 02:57:52 03:02:30 62° 74° (ENE) 03:07:08 437.345
MOZHAYETS 4 19 Jan 03:01:23 03:05:31 32° 264° (W) 03:09:40
KKS-1 19 Jan 03:11:22 03:13:43 14° 61° (ENE) 03:16:05 437.445
ITAMSAT 1 19 Jan 03:39:08 03:44:16 58° 101° (E) 03:49:23 435.822/435.867
ITUPSAT 1 19 Jan 03:47:49 03:51:19 20° 267° (W) 03:54:51 437.325
Gurwin Techsat 1B 19 Jan 03:48:22 03:50:04 12° 304° (NW) 03:51:47 435.225
nSIGHT-1 19 Jan 04:11:25 04:14:04 24° 224° (SW) 04:16:42 .
ISS 19 Jan 04:15:36 04:18:35 33° 221° (SW) 04:21:34 437.550
AO-7 19 Jan 04:23:20 04:31:34 63° 294° (WNW) 04:39:44 .
M-CUBED/EXP-1 PRIME 19 Jan 04:25:21 04:28:12 25° 101° (E) 04:30:57 437.505
SO-50 19 Jan 04:34:53 04:37:10 14° 109° (ESE) 04:39:29 436.795
DOVE 4 19 Jan 04:35:34 04:39:49 58° 101° (E) 04:44:16 437.250
CUBESAT XI-V 19 Jan 04:37:43 04:40:15 14° 270° (W) 04:42:48 437.345
KKS-1 19 Jan 04:45:24 04:49:45 62° 258° (WSW) 04:54:09 437.445
FALCONSAT 3 19 Jan 04:55:01 04:57:17 16° 163° (SSE) 04:59:33 435.103
XW-2B 19 Jan 04:57:29 04:58:58 12° 90° (E) 05:00:26 145.730 - 145.750
CUTE-I 19 Jan 04:58:48 05:01:26 14° 89° (E) 05:04:05 437.470
STRAND 1 19 Jan 05:06:05 05:08:57 15° 59° (ENE) 05:11:48 437.568
STARS 19 Jan 05:07:20 05:11:41 88° 71° (ENE) 05:16:05 437.465
ITAMSAT 1 19 Jan 05:19:36 05:23:16 20° 299° (WNW) 05:26:58 435.822/435.867
LilacSat-2 19 Jan 05:21:16 05:24:29 26° 95° (E) 05:27:40 437.200
XW-2C 19 Jan 05:26:11 05:29:26 27° 95° (E) 05:32:39 145.795 - 145.815
RS-15 19 Jan 05:55:35 05:59:53 12° 93° (E) 06:04:10 29.354- 29.394
M-CUBED/EXP-1 PRIME 19 Jan 06:00:02 06:02:28 18° 299° (WNW) 06:04:49 437.505
XW-2F 19 Jan 06:04:15 06:08:00 75° 102° (ESE) 06:11:42 145.980 - 146.000
KAITUO 1B 19 Jan 06:06:13 06:09:53 59° 101° (E) 06:13:31 145.475/437.950
XW-2D 19 Jan 06:12:07 06:15:54 76° 285° (WNW) 06:19:37 145.860 - 145.880
SO-50 19 Jan 06:12:36 06:17:02 68° 306° (NW) 06:21:34 436.795
DOVE 4 19 Jan 06:14:45 06:17:06 15° 296° (WNW) 06:19:31 437.250
AO-7 19 Jan 06:18:06 06:22:42 16° 316° (NW) 06:27:18 .
NUDT-PHONESAT 19 Jan 06:21:02 06:24:44 87° 102° (ESE) 06:28:23 437.300
XW-2B 19 Jan 06:29:46 06:33:24 47° 287° (WNW) 06:37:00 145.730 - 145.750
FALCONSAT 3 19 Jan 06:32:43 06:35:44 24° 178° (S) 06:38:46 435.103
HO-68 19 Jan 06:33:07 06:40:01 48° 100° (E) 06:46:53 435.675
CUTE-I 19 Jan 06:36:44 06:42:04 78° 286° (WNW) 06:47:23 437.470
CUBEBUG 2 19 Jan 06:38:28 06:42:51 36° 96° (E) 06:47:13 437.445
SEEDS 19 Jan 06:39:21 06:43:05 31° 96° (E) 06:46:46 437.485
STRAND 1 19 Jan 06:42:24 06:47:29 76° 257° (WSW) 06:52:36 437.568
